Theta_e
305 306 305 305 304 304 303 302 303 302 301 301 302 299 300 299 299 298 298 296 295 295 296 296 296 296 296 297 297 298 299 304 309 311 314 318 323 328 333 332 332 333 336
305 305 305 304 304 303 302 301 302 300 300 300 302 300 299 298 298 298 297 296 294 295 295 295 296 296 296 296 296 296 297 300 304 309 312 315 318 319 329 331 331 330 333
304 304 304 304 304 302 301 301 300 299 299 300 301 299 298 297 297 297 296 295 294 294 295 294 295 296 296 296 296 296 297 298 300 306 310 314 317 321 327 328 327 327 330
303 303 303 303 304 302 301 299 297 296 298 299 301 299 297 296 297 296 296 295 293 293 294 294 295 296 296 298 298 298 299 299 300 302 306 310 316 322 326 326 323 320 320
303 303 303 303 304 302 300 299 297 296 297 299 300 299 298 297 296 296 295 294 292 293 294 294 295 296 298 298 298 299 299 300 301 302 306 310 315 321 324 322 320 319 318
303 303 302 302 302 303 300 300 298 297 296 298 299 297 297 296 296 295 294 292 291 292 293 295 295 296 297 298 298 298 299 301 301 303 305 310 313 319 321 321 321 318 316
302 302 302 302 302 302 301 300 298 298 297 298 298 296 296 295 295 294 293 291 291 292 293 294 296 296 297 296 297 298 300 302 302 302 305 306 312 318 321 320 321 318 319
302 302 302 301 301 301 302 301 300 298 298 298 297 294 294 293 292 294 291 290 291 291 292 294 296 297 297 297 297 299 304 304 304 304 304 305 307 310 319 320 320 320 319
302 302 302 301 300 300 300 301 301 299 299 299 297 294 294 292 292 291 289 290 290 291 292 294 296 296 296 296 297 299 302 311 313 312 310 309 308 309 312 320 319 319 316
302 302 302 301 300 301 299 299 299 300 300 298 296 294 293 292 291 289 289 289 290 290 292 294 295 295 296 296 297 298 299 304 311 313 313 314 312 310 313 316 319 317 314
304 303 302 301 301 300 299 300 300 300 298 297 296 295 293 292 291 289 289 289 289 290 291 293 295 294 295 296 297 297 297 302 305 309 312 313 312 313 315 318 317 315 313
304 303 303 301 301 301 299 300 301 299 299 298 296 295 294 292 290 289 289 289 290 291 292 293 295 294 294 295 296 298 297 298 300 303 306 307 307 307 309 312 313 313 313
303 304 304 302 301 301 301 301 299 299 299 298 296 295 294 292 290 289 290 290 290 292 293 293 293 293 293 294 295 296 297 297 297 298 300 303 304 304 306 307 308 309 309
303 302 303 303 302 302 302 300 299 299 299 296 296 295 293 291 290 289 290 290 290 293 293 292 292 291 292 293 293 295 296 298 298 296 298 300 301 302 303 305 305 306 306
303 303 302 302 302 302 302 301 299 300 299 297 297 295 292 290 291 290 291 291 291 293 292 291 291 291 290 291 292 293 294 295 298 298 298 299 300 301 302 302 303 304 305
304 303 303 302 302 301 302 302 300 301 299 297 296 296 293 290 291 291 292 292 292 293 292 291 291 290 290 290 291 292 293 294 295 297 298 299 299 300 301 301 302 303 303
305 305 304 303 303 302 301 301 301 301 298 298 298 297 294 291 291 291 292 292 292 293 292 291 290 290 290 290 290 291 291 292 294 296 297 297 299 299 300 300 300 301 301
305 306 305 304 303 302 301 300 301 299 298 298 298 295 292 291 291 292 292 292 292 293 293 292 291 290 289 289 289 289 290 291 292 294 295 295 297 298 298 298 298 298 300
306 306 306 304 303 302 301 301 300 298 298 298 296 293 291 291 292 292 292 291 291 291 293 292 291 290 290 290 289 289 289 290 291 293 294 294 294 295 296 297 297 297 298
304 306 304 302 301 302 301 300 298 297 297 295 295 293 291 291 292 291 292 291 291 291 291 292 291 290 290 289 289 289 289 290 290 291 291 293 294 294 294 295 296 296 297
307 305 303 302 301 301 300 298 297 297 295 295 294 292 291 291 291 291 291 291 291 291 290 290 291 291 291 290 289 289 289 289 289 289 290 291 292 293 294 294 295 295 295
306 304 301 301 301 300 298 297 295 294 294 294 292 291 291 291 290 291 291 290 291 290 289 290 290 291 291 290 290 289 289 289 289 288 288 289 289 291 292 293 294 294 294
303 301 300 301 301 298 296 295 294 293 293 293 291 291 291 290 290 291 290 290 290 289 289 289 289 290 291 290 290 289 288 288 287 286 287 288 288 289 291 293 293 294 294
302 301 301 299 297 295 294 294 293 293 293 292 291 291 290 290 290 290 289 289 288 288 288 289 289 288 290 290 289 289 288 287 286 285 285 285 286 287 289 290 291 292 293
301 298 297 296 296 295 294 293 293 293 292 291 291 290 289 290 290 289 289 288 288 288 288 288 288 288 289 289 288 288 287 286 285 285 285 285 285 286 287 289 290 291 292
299 298 296 296 295 294 294 293 291 292 291 291 290 289 289 290 289 288 288 287 287 287 288 287 287 288 287 287 288 287 286 285 285 284 284 283 283 284 286 288 289 290 291
Wind_Speed
10 11 13 10 14 13 15 16 16 18 20 18 15 23 18 24 21 21 18 27 28 27 28 27 29 29 28 28 28 29 29 30 21 37 34 34 36 31 35 38 41 42 43
10 10 12 11 10 12 13 16 16 18 18 21 19 20 20 25 22 20 27 31 31 31 31 31 31 29 31 29 29 31 31 32 34 29 35 33 35 39 38 42 41 44 46
9 9 10 9 7 9 14 14 17 18 17 19 20 19 22 24 24 21 25 29 31 30 30 30 32 32 31 31 32 34 33 33 34 34 35 34 35 32 27 31 37 40 44
8 9 9 11 5 9 15 17 19 18 19 21 20 21 24 26 21 27 27 31 33 30 30 29 32 33 33 35 35 35 35 36 35 35 34 34 32 28 29 30 28 30 34
6 8 9 10 7 9 13 17 24 20 20 22 20 21 26 23 22 27 30 31 35 30 30 31 33 33 34 36 39 39 37 36 34 32 29 29 29 25 20 25 23 26 26
8 10 11 11 12 10 12 18 25 25 21 23 20 24 25 26 25 29 31 35 35 29 32 35 35 34 36 40 42 46 45 44 41 33 30 25 31 29 26 18 25 23 6
10 11 11 12 13 13 10 17 20 19 21 21 20 27 27 31 28 31 32 36 34 30 32 36 38 38 40 44 52 52 49 42 50 44 36 37 29 32 28 31 29 25 20
10 10 11 12 13 13 10 14 16 15 17 18 19 28 26 29 29 30 34 34 31 31 31 35 38 41 44 52 55 50 40 28 31 42 48 43 41 37 33 32 36 31 24
9 9 9 10 13 12 12 15 16 13 13 12 18 23 23 28 28 32 32 33 34 34 33 31 36 40 48 51 47 47 45 26 24 32 37 42 44 54 38 32 25 23 9
6 8 9 9 14 13 14 16 16 15 11 10 17 20 23 26 27 31 29 30 33 34 35 35 34 42 48 49 44 41 38 31 24 28 28 30 38 39 34 38 29 24 15
9 7 7 10 12 10 16 16 17 12 11 14 17 20 22 23 26 30 29 30 32 33 31 32 34 41 45 47 44 42 44 37 31 15 19 18 25 27 25 31 31 32 24
13 10 7 10 12 13 15 16 12 13 14 14 18 19 20 21 26 29 29 30 31 30 34 34 32 38 40 41 42 42 44 41 36 31 19 14 23 22 29 29 29 25 20
13 15 14 9 13 18 14 10 15 18 14 13 19 19 17 20 27 28 30 33 31 27 28 28 30 34 33 34 40 40 35 35 34 33 27 21 21 23 35 35 34 31 30
8 13 16 12 18 23 13 10 17 21 13 14 18 16 13 17 28 28 29 35 31 24 26 27 27 28 28 30 34 36 34 31 28 27 27 28 26 27 30 28 26 26 28
11 13 12 13 17 19 22 15 19 20 16 14 18 16 12 12 26 26 28 30 28 18 21 25 26 28 29 30 31 30 31 32 29 26 24 24 23 26 28 26 29 22 19
15 14 13 13 14 15 20 22 22 23 16 8 18 19 12 10 27 26 28 23 22 13 20 20 22 23 24 25 27 28 28 29 29 28 27 22 26 27 24 26 23 19 15
20 19 17 15 12 13 16 21 25 22 18 16 21 17 11 12 24 26 25 21 23 11 16 18 18 20 21 22 24 24 25 28 28 26 25 26 23 20 20 19 18 16 15
21 15 19 18 14 12 13 18 23 18 19 25 20 11 9 14 22 22 23 22 25 14 12 14 16 20 20 20 22 22 23 24 26 23 22 22 21 19 17 16 16 15 12
25 14 15 12 14 7 12 18 19 19 21 22 18 10 16 19 20 19 21 22 22 25 10 12 13 17 20 20 22 22 22 22 22 23 21 21 21 18 17 17 15 13 13
16 11 11 7 7 7 11 17 17 20 16 18 17 12 21 22 22 22 20 21 22 22 22 13 11 13 16 20 21 22 21 20 19 21 21 20 19 17 15 12 13 12 11
9 4 2 5 2 7 8 14 18 13 18 18 17 17 20 21 20 23 21 21 23 20 23 26 14 12 14 18 19 19 18 19 18 19 20 19 17 17 15 11 9 9 9
6 5 9 2 2 3 10 11 14 17 19 22 16 19 19 18 21 22 20 22 21 21 23 24 23 13 14 15 17 18 16 15 16 16 18 17 16 15 13 12 11 10 9
6 5 5 4 3 6 11 15 16 18 20 18 19 18 18 20 22 21 20 22 20 23 24 23 23 22 12 15 14 15 15 15 14 15 15 14 13 13 12 11 9 9 9
6 5 3 6 11 13 13 14 16 17 18 18 18 17 18 20 20 19 21 21 23 25 24 24 23 26 15 15 15 14 14 18 19 15 14 13 12 12 11 10 8 7 7
3 4 6 9 8 9 9 11 14 16 17 18 15 16 19 20 18 19 20 23 25 26 25 23 23 24 19 19 19 17 21 24 16 14 11 10 11 11 9 9 7 7 5
3 2 6 3 3 4 4 6 10 12 16 16 14 18 19 17 18 20 22 25 26 27 25 25 24 21 22 23 20 23 28 24 16 13 17 16 14 10 9 9 8 7 7
Wind_Direction
53 77 60 52 47 46 34 22 17 15 7 5 6 1 2 4 358 351 353 346 338 333 328 323 315 314 305 301 294 288 281 275 272 280 275 276 279 283 265 236 235 234 225
40 69 55 44 42 46 28 21 18 9 7 6 352 8 4 360 354 348 345 344 339 333 328 324 318 317 311 303 298 287 279 276 275 277 276 274 269 271 257 227 231 224 220
41 48 44 34 53 52 20 23 6 3 3 4 0 5 2 359 355 352 341 337 337 329 327 322 316 313 308 304 300 292 279 275 273 273 274 272 266 259 248 204 206 210 213
37 42 40 29 73 24 18 13 9 5 8 4 1 355 355 359 357 351 342 334 332 329 329 324 317 310 306 304 301 292 284 270 267 266 268 268 267 258 239 204 186 194 194
40 36 43 30 24 30 25 19 12 12 6 4 4 357 355 356 354 346 342 335 330 327 329 327 322 314 313 311 304 295 283 274 267 257 262 259 254 242 215 195 192 181 197
48 35 33 26 23 19 33 15 4 14 6 6 1 358 354 352 347 345 345 337 335 329 327 330 327 321 316 313 310 299 281 270 258 253 250 255 243 240 210 213 185 179 186
41 28 22 18 16 13 12 1 6 358 6 5 2 353 351 348 345 344 343 339 337 329 325 327 326 328 325 323 321 312 297 271 243 241 244 244 261 231 228 195 194 193 199
34 21 14 11 3 356 341 345 354 351 352 1 351 356 347 345 348 342 342 342 338 333 329 327 329 329 331 330 330 326 317 276 249 238 238 241 246 258 222 209 205 207 212
16 8 5 2 351 343 336 327 331 334 334 342 339 348 344 345 348 345 346 342 339 336 334 332 335 334 336 338 339 341 336 281 273 255 241 237 240 241 247 216 199 195 186
359 355 351 344 347 336 333 321 322 315 313 310 329 344 347 346 348 349 351 342 339 336 335 337 339 341 345 347 346 347 344 335 296 270 248 245 246 236 242 241 193 182 170
335 331 337 339 330 317 318 315 319 308 303 309 324 335 342 343 345 351 352 348 346 333 329 329 337 342 349 354 350 357 353 359 3 319 242 221 208 206 202 202 181 172 162
334 328 306 341 312 309 312 321 336 320 307 304 317 323 335 341 345 349 348 350 351 343 335 335 336 346 349 356 354 360 10 11 14 18 17 96 117 118 120 133 145 142 148
332 334 320 318 332 324 313 321 333 322 310 308 314 315 325 338 346 349 346 346 351 348 347 346 346 350 350 353 2 1 11 14 14 20 19 19 63 90 100 104 115 121 116
284 316 330 333 341 342 318 328 333 324 301 308 320 311 314 332 349 348 344 342 348 349 352 352 349 352 354 356 1 2 7 12 23 24 23 25 41 58 68 82 86 98 101
271 291 311 323 331 334 339 314 329 321 305 309 339 318 300 335 349 347 344 340 344 348 352 358 355 357 356 355 357 1 4 9 13 19 27 29 32 48 53 66 75 79 79
248 266 282 295 306 320 329 333 335 331 327 329 344 336 296 336 354 350 352 347 347 353 6 2 359 357 355 353 354 356 2 4 8 13 16 27 34 35 44 55 68 82 82
249 259 262 271 281 303 323 329 325 333 346 334 330 335 320 332 346 351 355 355 354 354 13 9 1 358 354 354 355 356 359 1 7 16 19 24 29 37 48 53 56 58 68
255 263 274 267 271 283 307 328 328 337 346 346 351 24 17 341 346 358 355 359 357 356 12 10 6 2 358 354 354 355 358 2 6 10 21 25 27 32 41 47 46 47 57
283 256 262 280 289 291 331 329 330 351 345 347 7 7 13 1 2 4 359 4 2 359 357 8 9 8 6 358 359 355 358 1 3 10 16 19 23 32 29 34 41 46 44
257 247 255 310 323 340 334 323 339 335 346 360 356 4 13 10 6 3 6 4 6 4 11 352 2 7 6 3 356 357 358 360 5 10 12 13 15 23 25 26 27 30 30
243 248 226 207 10 11 322 318 327 7 4 359 357 9 9 8 7 1 1 9 1 15 8 1 348 3 355 357 359 357 356 357 3 5 6 7 9 8 15 16 18 26 38
158 174 163 183 37 309 321 347 29 14 4 352 12 6 5 12 4 357 7 4 3 10 5 358 354 349 357 356 354 352 345 349 354 354 351 351 354 358 6 10 14 16 25
101 96 93 67 332 357 36 30 17 6 1 2 6 3 10 7 1 359 2 0 6 360 357 354 352 350 336 353 354 352 345 340 339 339 329 328 330 339 347 356 8 14 14
78 94 67 30 58 50 37 16 4 2 359 356 357 8 7 359 358 359 355 356 353 352 350 347 347 345 332 341 345 351 349 339 330 326 318 311 309 315 320 335 350 0 1
90 83 70 72 52 32 22 10 1 358 357 351 2 3 355 354 355 350 350 347 345 343 342 342 341 341 351 342 339 342 336 336 326 316 316 320 304 291 293 307 314 322 323
140 36 101 73 38 29 334 347 359 358 350 350 351 349 348 348 346 347 344 344 342 339 340 339 338 337 338 333 328 332 330 330 326 316 309 303 296 280 271 280 290 290 301